Probability
0 0 0 0 0 0 0 0 0 0 0 0 0 0 0 0 0 0 0 0 0 0 0 0 0 0 0 0 0 0 0 0 0 0 0 0 0 0 0 0 0 0 0 0
0 0 0 0 0 0 0 0 0 0 0 0 0 0 0 0 0 0 0 0 0 0 0 0 0 0 0 0 0 0 0 0 0 0 0 0 0 0 0 0 0 0 0 0
0 0 0 0 0 0 0 0 0 0 0 0 0 0 0 0 0 0 0 0 0 0 0 0 0 0 0 0 0 0 0 0 0 0 0 0 0 0 0 0 0 0 0 0
0 0 0 0 0 0 0 0 0 0 0 0 0 0 0 0 0 0 0 0 0 0 0 0 0 0 0 0 0 0 0 0 0 0 0 0 0 0 0 0 0 0 0 0
0 0 0 0 0 0 0 0 0 0 0 0 0 0 0 0 0 0 0 0 0 0 0 0 0 0 0 0 0 0 0 0 0 0 0 0 0 0 0 0 0 0 0 0
0 0 0 0 0 0 0 0 0 0 0 0 0 0 0 0 0 0 0 0 0 0 0 0 0 0 0 0 0 0 0 0 0 0 0 0 0 0 0 0 0 0 0 0
0 0 0 0 0 0 0 0 0 0 0 0 0 0 0 0 0 0 0 0 0 0 0 0 0 0 0 0 0 0 0 0 0 0 0 0 0 0 0 0 0 0 0 0
0 0 0 0 0 0 0 0 0 0 0 0 0 0 0 0 0 0 0 0 0 0 0 0 0 0 0 0 0 0 0 0 0 0 0 0 0 0 0 0 0 0 0 0
0 0 0 0 0 0 0 0 0 0 0 0 0 0 0 0 0 0 0 0 0 0 0 0 0 0 0 0 0 0 0 0 0 0 0 0 0 0 0 0 0 0 0 0
0 0 0 0 0 0 0 0 0 0 0 0 0 0 0 0 0 0 0 0 0 0 0 0 0 0 0 0 0 0 0 0 0 0 0 0 0 0 0 0 0 0 0 0
0 0 0 0 0 0 0 0 0 0 0 0 0 0 0 0 0 0 0 0 0 0 0 0 0 0 0 0 0 0 0 0 0 0 0 0 0 0 0 0 0 0 0 0
0 0 0 0 0 0 0 0 0 0 0 0 0 0 0 0 0 0 0 0 0 0 0 0 0 0 0 0 0 0 0 0 0 0 0 0 0 0 0 0 0 0 0 0
0 0 0 0 0 0 0 0 0 0 0 0 0 0 0 0 0 0 0 0 0 0 0 0 0 0 0 0 0 0 0 0 0 0 0 0 0 0 0 0 0 0 0 0
0 0 0 0 0 0 0 0 0 0 0 0 0 0 0 0 0 0 0 0 0 0 0 0 0 0 0 0 0 0 0 0 0 0 0 0 0 0 0 0 0 0 0 0
0 0 0 0 0 0 0 0 0 0 0 0 0 0 0 0 0 0 0 0 0 0 0 0 0 0 0 0 0 0 0 0 0 0 0 0 0 0 0 0 0 0 0 0
0 0 0 0 0 0 0 0 0 0 0 0 0 0 0 0 0 0 0 0 0 0 0 0 0 0 0 0 0 0 0 0 0 0 0 0 0 0 0 0 0 0 0 0
0 0 0 0 0 0 0 0 0 0 0 0 0 0 0 0 0 0 0 0 0 0 0 0 0 0 0 0 0 0 0 0 0 0 0 0 0 0 0 0 0 0 0 0
0 0 0 0 0 0 0 0 0 0 0 0 0 0 0 0 0 0 0 0 0 0 0 0 0 0 0 0 0 0 0 0 0 0 0 0 0 0 0 0 0 0 0 0
0 0 0 0 0 0 0 0 0 0 0 0 0 0 0 0 0 0 0 0 0 0 0 0 0 0 0 0 0 0 0 0 0 0 0 0 0 0 0 0 0 0 0 0
0 0 0 0 0 0 0 0 0 0 0 0 0 0 0 0 0 0 0 0 0 0 0 0 0 0 0 0 0 0 0 0 0 0 0 0 0 0 0 0 0 0 0 0
0 0 0 0 0 0 0 0 0 0 0 0 0 0 0 0 0 0 0 0 0 0 0 0 0 0 0 0 0 0 0 0 0 0 0 0 0 0 0 0 0 0 0 0
0 0 0 0 0 0 0 0 0 0 0 0 0 0 0 0 0 0 0 0 0 0 0 0 0 0 0 0 0 0 0 0 0 0 0 0 0 0 0 0 0 0 0 0
0 0 0 0 0 0 0 0 0 0 0 0 0 0 0 0 0 0 0 0 0 0 0 0 0 0 0 0 0 0 0 0 0 0 0 0 0 0 0 0 0 0 0 0
0 0 0 0 0 0 0 0 0 0 0 0 0 0 0 0 0 0 0 0 0 0 0 0 0 0 0 0 0 0 0 0 0 0 0 0 0 0 0 0 0 0 0 0
0 0 0 0 0 0 0 0 0 0 0 0 0 0 0 0 0 0 0 0 0 0 0 0 0 0 0 0 0 0 0 0 0 0 0 0 0 0 0 0 0 0 0 0
0 0 0 0 0 0 0 0 0 0 0 0 0 0 0 0 0 0 0 0 0 0 0 0 0 0 0 0 0 0 0 0 0 0 0 0 0 0 0 0 0 0 0 0
0 0 0 0 0 0 0 0 0 0 0 0 0 0 0 0 0 0 0 0 0 0 0 0 0 0 0 0 0 0 0 0 0 0 0 0 0 0 0 0 0 0 0 0
Height
5721 5719 5719 5718 5717 5715 5714 5713 5713 5712 5711 5709 5707 5707 5706 5705 5703 5702 5701 5699 5698 5696 5694 5692 5690 5687 5685 5682 5679 5676 5673 5669 5666 5662 5659 5655 5651 5647 5643 5639 5635 5631 5627 5622
5717 5715 5714 5713 5712 5710 5709 5708 5707 5706 5705 5703 5701 5700 5699 5698 5696 5694 5693 5691 5689 5687 5685 5682 5680 5677 5674 5671 5668 5665 5661 5658 5654 5650 5647 5643 5639 5634 5630 5626 5621 5617 5613 5608
5712 5710 5708 5708 5707 5705 5703 5702 5701 5699 5699 5696 5695 5693 5691 5690 5688 5686 5684 5682 5680 5677 5675 5672 5669 5666 5663 5660 5657 5653 5649 5646 5642 5638 5634 5630 5625 5621 5616 5612 5607 5603 5599 5594
5705 5704 5703 5704 5700 5698 5697 5695 5693 5692 5690 5688 5687 5685 5683 5681 5679 5677 5675 5672 5670 5667 5664 5661 5658 5655 5652 5648 5645 5641 5637 5633 5629 5625 5621 5616 5611 5607 5602 5598 5593 5589 5585 5580
5697 5696 5695 5696 5693 5690 5689 5687 5685 5683 5682 5680 5678 5676 5674 5672 5669 5667 5664 5662 5659 5656 5653 5650 5646 5643 5640 5636 5632 5628 5625 5620 5616 5611 5607 5603 5598 5593 5588 5584 5579 5575 5570 5566
5689 5687 5687 5688 5685 5682 5681 5679 5677 5675 5673 5671 5669 5667 5665 5662 5659 5656 5653 5650 5647 5644 5641 5638 5634 5630 5627 5623 5619 5615 5611 5607 5602 5597 5593 5588 5584 5579 5574 5569 5565 5561 5557 5552
5681 5678 5678 5678 5675 5673 5673 5671 5668 5665 5663 5661 5658 5656 5654 5650 5648 5645 5642 5639 5635 5632 5628 5625 5621 5617 5613 5609 5606 5601 5597 5592 5588 5583 5578 5573 5569 5564 5559 5555 5551 5547 5543 5539
5672 5670 5671 5668 5665 5664 5662 5659 5657 5655 5652 5650 5647 5644 5642 5639 5636 5633 5629 5626 5622 5619 5615 5611 5607 5603 5599 5595 5591 5587 5582 5578 5573 5568 5563 5558 5554 5549 5545 5540 5537 5533 5529 5525
5663 5663 5660 5657 5654 5652 5650 5648 5646 5644 5641 5639 5636 5633 5630 5627 5624 5620 5617 5613 5610 5606 5602 5598 5593 5589 5585 5581 5576 5572 5567 5562 5558 5553 5548 5543 5539 5534 5530 5526 5522 5519 5515 5512
5651 5651 5648 5645 5642 5641 5639 5637 5634 5632 5629 5626 5623 5621 5618 5615 5611 5608 5604 5600 5596 5592 5588 5584 5579 5574 5570 5566 5561 5557 5552 5547 5542 5538 5534 5529 5524 5520 5516 5512 5508 5505 5501 5498
5639 5639 5635 5633 5631 5629 5627 5624 5622 5619 5617 5614 5611 5608 5605 5601 5598 5594 5590 5586 5582 5578 5574 5569 5565 5560 5555 5550 5546 5541 5537 5532 5527 5523 5518 5514 5510 5506 5502 5498 5494 5491 5488 5484
5627 5625 5622 5622 5619 5617 5614 5612 5609 5607 5604 5601 5597 5594 5591 5587 5584 5580 5576 5572 5567 5563 5559 5554 5550 5545 5540 5535 5530 5526 5522 5517 5512 5508 5504 5500 5496 5493 5488 5484 5481 5477 5474 5471
5613 5611 5609 5608 5606 5603 5601 5598 5596 5593 5590 5587 5584 5580 5577 5573 5569 5566 5561 5557 5552 5548 5543 5539 5534 5530 5525 5520 5516 5511 5506 5502 5498 5494 5489 5485 5481 5478 5475 5472 5468 5464 5461 5458
5598 5596 5595 5594 5592 5589 5587 5584 5582 5579 5575 5572 5569 5565 5562 5558 5554 5550 5546 5542 5537 5533 5529 5524 5520 5515 5510 5505 5501 5497 5492 5487 5483 5479 5475 5471 5467 5463 5460 5458 5455 5452 5448 5444
5584 5582 5581 5579 5577 5575 5572 5569 5567 5564 5561 5558 5554 5551 5547 5544 5540 5536 5531 5527 5523 5518 5514 5510 5505 5500 5495 5491 5486 5482 5477 5473 5468 5464 5460 5456 5453 5449 5446 5443 5441 5438 5436 5432
5569 5568 5566 5564 5562 5560 5557 5554 5552 5549 5546 5543 5540 5536 5533 5529 5525 5521 5516 5512 5508 5504 5499 5495 5490 5485 5480 5476 5472 5467 5463 5458 5453 5450 5446 5442 5438 5435 5432 5429 5426 5424 5421 5419
5555 5553 5552 5550 5547 5545 5542 5540 5537 5534 5531 5528 5525 5522 5518 5514 5510 5506 5502 5497 5493 5489 5484 5479 5475 5471 5466 5461 5457 5452 5448 5444 5439 5435 5431 5427 5424 5420 5417 5415 5412 5410 5407 5405
5540 5539 5537 5535 5533 5530 5528 5525 5522 5520 5517 5513 5510 5507 5503 5500 5496 5492 5488 5483 5479 5475 5470 5464 5460 5456 5451 5446 5442 5438 5434 5429 5425 5421 5417 5413 5410 5407 5403 5401 5398 5396 5394 5391
5526 5525 5523 5521 5518 5516 5513 5511 5508 5505 5502 5499 5496 5492 5489 5485 5481 5477 5472 5468 5464 5460 5456 5450 5446 5441 5437 5432 5427 5423 5419 5415 5411 5407 5403 5400 5397 5393 5390 5388 5385 5383 5381 5379
5512 5510 5508 5506 5504 5502 5499 5496 5493 5491 5487 5484 5480 5477 5474 5470 5466 5461 5457 5454 5449 5443 5440 5436 5431 5427 5422 5418 5413 5409 5406 5402 5398 5394 5391 5387 5384 5381 5378 5376 5373 5371 5369 5367
5497 5496 5494 5492 5490 5487 5485 5482 5479 5476 5473 5469 5465 5462 5458 5455 5450 5446 5442 5439 5436 5429 5425 5421 5416 5412 5408 5404 5400 5396 5393 5389 5385 5382 5379 5375 5372 5370 5367 5364 5362 5360 5358 5357
5483 5481 5479 5477 5475 5473 5470 5467 5464 5461 5458 5454 5450 5446 5442 5439 5435 5431 5427 5423 5419 5415 5410 5407 5402 5398 5394 5391 5387 5384 5380 5377 5374 5370 5367 5364 5361 5359 5356 5354 5351 5350 5348 5347
5469 5467 5465 5463 5460 5458 5456 5453 5449 5446 5443 5439 5435 5431 5427 5423 5419 5415 5412 5409 5404 5400 5396 5393 5389 5385 5382 5378 5375 5372 5369 5365 5362 5360 5357 5354 5351 5349 5346 5344 5342 5340 5339 5338
5455 5453 5451 5448 5445 5443 5441 5438 5434 5431 5428 5424 5420 5416 5411 5407 5404 5400 5396 5393 5389 5386 5382 5379 5375 5372 5369 5366 5363 5360 5357 5355 5352 5349 5347 5344 5342 5339 5337 5335 5333 5332 5331 5330
5440 5438 5436 5433 5431 5428 5425 5422 5419 5416 5413 5409 5406 5402 5397 5392 5389 5386 5383 5379 5375 5372 5369 5366 5363 5360 5357 5354 5352 5349 5347 5344 5342 5339 5337 5335 5333 5330 5328 5327 5325 5324 5323 5322
5425 5423 5421 5418 5415 5412 5409 5406 5403 5401 5397 5394 5391 5387 5383 5379 5375 5372 5369 5366 5362 5359 5356 5354 5351 5348 5346 5343 5341 5338 5336 5334 5332 5330 5328 5326 5324 5322 5321 5319 5318 5317 5316 5316
5410 5408 5405 5403 5400 5397 5394 5391 5388 5385 5381 5378 5375 5373 5369 5365 5362 5358 5355 5353 5350 5347 5344 5342 5339 5337 5335 5332 5330 5328 5326 5325 5323 5321 5320 5318 5316 5315 5314 5312 5311 5310 5310 5309
Wind_Speed
15 15 16 16 17 18 18 19 20 19 20 21 21 21 21 22 23 24 26 26 27 28 30 31 33 34 36 37 38 39 41 42 43 44 45 46 47 48 48 49 49 49 50 50
16 17 18 18 19 20 21 21 21 21 21 23 23 24 24 25 26 27 28 30 31 32 33 34 36 37 39 40 40 41 42 43 44 45 47 48 49 49 50 50 50 51 51 51
19 20 20 19 20 22 22 23 24 24 24 25 25 26 27 28 29 30 31 32 33 35 36 37 38 39 40 41 42 43 44 44 46 47 48 49 50 50 50 51 51 51 51 51
22 22 22 22 22 23 24 25 26 26 26 27 27 28 29 30 31 33 33 34 35 37 38 39 40 41 42 42 43 44 45 46 47 48 49 49 50 50 50 50 51 51 51 51
25 25 24 24 25 25 26 26 27 28 28 29 30 31 32 33 34 35 36 37 38 39 40 41 42 42 43 44 45 46 47 48 49 50 50 50 50 51 51 51 51 51 51 50
27 28 27 27 27 28 29 29 29 30 31 32 33 33 34 35 35 36 38 39 40 41 42 43 44 44 45 46 47 48 49 50 51 51 52 52 52 52 51 51 51 50 50 49
30 31 30 30 30 31 31 32 32 33 33 34 34 36 37 37 38 39 40 41 42 43 44 45 46 47 48 48 49 50 51 51 52 53 53 53 53 52 51 50 50 49 48 47
32 33 32 32 33 33 34 35 36 36 36 37 37 38 39 40 41 42 42 43 44 45 46 47 48 49 50 50 51 51 52 53 53 53 53 53 52 51 51 50 49 48 46 45
34 34 34 35 35 36 37 38 38 38 38 39 40 40 41 41 42 43 44 45 47 47 48 49 49 50 51 51 52 53 53 53 53 53 53 52 51 50 50 49 48 46 45 44
36 35 36 38 39 39 40 41 41 41 41 41 41 42 43 43 44 45 46 47 48 49 50 50 51 51 52 52 53 53 53 53 53 52 52 51 50 49 48 47 47 46 45 44
38 38 39 40 41 41 42 42 42 43 43 43 43 44 44 45 46 47 47 49 50 50 51 51 52 52 52 52 52 53 52 52 51 51 50 49 48 48 47 46 46 45 44 43
41 41 42 42 43 44 44 44 44 44 44 45 45 46 46 47 48 49 49 50 51 51 51 51 51 51 51 51 52 52 51 51 50 50 50 49 48 47 46 45 44 44 43 43
44 45 45 45 45 45 46 46 46 46 46 46 47 47 48 49 50 50 51 51 51 51 51 51 51 51 51 51 51 51 51 51 50 50 49 48 48 47 45 44 44 43 43 42
46 47 46 46 47 47 47 47 47 47 47 47 48 49 50 50 51 51 52 52 52 51 51 51 51 51 51 51 51 51 51 51 50 49 49 48 47 46 45 44 43 42 42 42
47 47 47 47 48 48 48 48 48 48 48 48 49 50 50 51 51 52 52 52 52 51 51 51 51 51 51 51 51 51 51 50 50 49 48 47 47 46 45 45 44 42 42 42
47 47 47 47 47 48 48 48 49 49 49 49 49 49 50 50 51 51 52 52 51 51 50 51 51 50 50 50 50 50 50 50 50 49 48 48 47 46 45 44 44 43 42 41
45 45 45 46 46 47 48 48 48 49 49 49 49 49 50 51 51 51 51 51 51 51 51 51 50 50 50 50 49 49 49 49 49 48 48 47 46 46 45 44 43 42 41 40
44 44 45 45 46 46 47 47 48 48 48 48 49 50 50 51 51 51 51 50 50 50 50 50 50 50 50 49 49 49 49 49 48 47 46 45 45 44 44 43 41 40 39 38
45 45 45 45 46 46 47 47 48 48 48 49 50 50 50 50 50 50 50 50 50 50 49 50 50 50 49 49 49 49 48 47 46 45 44 43 43 42 41 40 39 38 37 36
45 45 45 45 45 46 47 47 48 48 49 49 50 50 50 50 51 51 50 50 50 50 51 50 50 49 48 48 48 47 46 45 44 42 41 41 40 39 38 37 37 36 35 34
44 44 45 45 46 46 47 47 48 48 49 49 50 50 50 50 51 51 50 50 49 50 50 49 48 47 47 46 46 45 43 42 41 40 39 38 37 36 36 35 34 33 32 31
44 44 45 45 46 46 46 47 48 48 49 49 50 50 51 50 50 50 50 50 50 50 49 47 46 46 45 44 43 42 41 40 38 37 37 36 35 34 33 33 32 31 29 28
44 45 45 46 46 46 47 48 49 49 49 50 50 50 50 50 50 50 49 49 49 48 47 46 45 44 43 42 40 39 39 37 36 35 34 33 32 32 31 30 29 28 26 25
44 45 46 46 47 47 48 49 49 50 50 50 50 50 50 50 49 48 48 48 47 47 45 43 42 41 41 39 38 37 36 35 34 34 32 31 31 30 29 28 26 25 24 23
46 47 47 48 48 49 50 50 50 50 50 50 50 49 49 49 48 46 46 46 45 44 42 41 40 39 38 37 37 36 35 33 32 31 30 29 28 27 26 25 23 22 21 21
47 48 48 49 49 49 50 50 50 50 50 50 48 48 47 46 46 45 44 43 42 41 40 38 37 36 36 36 35 33 32 30 29 28 27 26 25 24 23 22 20 20 19 19
47 48 48 48 48 49 49 49 49 49 49 48 47 46 45 44 44 43 42 41 40 39 37 36 35 34 33 32 31 29 28 27 26 26 25 24 23 22 21 20 19 18 18 18
Wind_Direction
287 285 284 284 283 282 282 282 282 282 281 281 280 280 279 278 278 278 279 281 282 282 284 286 287 288 289 290 290 291 291 291 291 291 292 292 292 292 292 292 291 291 290 290
286 286 285 284 284 283 284 284 284 284 284 282 283 282 282 281 281 281 281 282 284 285 286 288 289 289 290 290 291 292 292 292 293 293 293 293 293 292 292 292 291 291 290 290
286 285 285 285 284 285 285 285 285 286 285 283 283 282 282 283 283 283 284 285 286 287 288 288 289 290 291 292 292 293 293 294 294 294 294 293 293 293 292 292 291 290 290 289
286 285 284 286 285 285 285 285 285 285 284 283 283 283 284 284 284 285 286 287 288 289 290 290 291 291 292 292 292 293 294 295 295 295 295 295 294 293 293 292 291 291 290 289
286 285 284 285 286 286 285 285 285 284 283 284 284 284 285 285 286 286 287 288 288 289 290 291 291 292 293 292 293 294 294 295 295 295 295 295 295 294 293 292 292 291 291 290
286 287 287 288 286 285 285 286 285 285 286 286 286 285 286 287 287 288 288 288 289 290 291 291 292 292 292 293 294 294 295 295 295 295 295 295 295 294 293 293 292 292 291 291
286 287 288 289 288 287 287 287 287 288 288 287 287 287 287 287 288 288 289 290 290 291 291 292 292 292 293 293 294 294 295 295 295 295 295 295 295 294 294 293 293 293 292 290
285 286 288 287 287 287 286 286 287 288 287 287 286 286 286 287 288 289 290 291 291 291 292 292 292 292 293 293 293 293 294 295 295 295 295 295 294 294 294 293 293 292 292 290
284 286 286 286 286 286 286 287 288 287 287 287 287 287 288 288 288 289 290 291 291 292 292 292 292 292 293 294 294 294 295 295 295 295 295 295 295 294 293 293 292 291 291 290
282 283 283 284 284 285 286 287 288 288 288 288 288 288 289 289 290 290 290 291 292 292 292 292 293 293 294 294 295 295 295 295 295 295 295 295 294 294 293 292 291 290 289 288
281 282 281 282 283 285 287 288 288 288 288 288 288 288 289 289 290 291 291 292 292 293 293 293 293 294 294 295 295 295 295 295 295 295 295 294 294 293 293 292 291 290 289 287
280 280 281 282 283 284 286 287 287 287 287 287 287 288 288 289 290 291 292 292 292 293 293 294 294 294 294 295 295 295 295 295 295 295 294 294 293 292 292 292 291 290 289 288
279 280 281 282 283 284 285 285 286 286 287 287 287 288 288 289 290 291 291 292 293 293 294 294 294 294 294 294 295 295 295 295 295 294 293 293 292 292 291 290 290 290 289 288
278 279 280 282 282 283 284 284 285 285 286 286 287 288 289 290 290 291 292 293 293 294 294 294 295 295 295 294 294 295 295 295 295 294 293 292 292 292 291 290 289 289 289 288
277 278 280 281 281 282 283 283 284 285 285 286 287 288 289 290 291 292 292 293 293 293 294 294 295 295 295 295 295 295 295 295 295 294 293 292 292 291 290 290 289 289 288 288
276 278 279 280 281 281 282 283 284 284 285 286 287 288 290 291 292 293 293 293 293 293 294 294 295 295 296 296 296 296 295 295 295 294 293 293 292 291 290 289 289 289 289 288
277 278 279 280 281 282 283 283 284 285 286 286 287 289 290 291 292 293 293 294 294 294 294 294 295 296 296 296 296 296 296 295 295 294 294 293 292 291 290 289 289 289 288 287
278 279 280 281 283 283 284 284 285 286 287 288 288 289 290 291 292 293 293 293 294 294 295 295 296 296 296 296 295 295 296 295 295 294 293 293 292 291 290 289 289 289 288 286
278 280 281 283 284 284 285 285 286 287 287 288 289 290 291 292 292 293 293 294 295 295 295 295 296 296 295 295 295 295 296 295 295 294 293 293 293 292 290 290 289 289 287 286
279 280 281 282 283 284 285 286 287 287 288 289 289 290 291 292 292 293 293 294 295 295 296 296 295 295 294 294 295 295 295 295 295 294 294 294 294 293 292 290 289 288 286 285
279 280 281 283 284 285 286 287 288 289 290 290 291 291 291 292 293 293 294 295 295 295 296 296 295 295 295 295 295 295 295 295 294 294 294 294 294 294 293 291 288 287 285 284
281 282 283 284 286 286 287 288 289 289 290 291 291 292 292 293 293 293 294 295 295 295 295 295 295 295 295 295 295 294 294 294 294 294 295 295 294 294 293 291 289 286 284 282
282 283 284 286 286 287 287 288 289 290 291 292 292 293 293 294 294 294 294 294 295 295 295 295 294 294 294 294 294 294 294 293 293 293 294 294 294 294 293 291 289 285 282 280
282 283 284 285 286 287 287 288 289 290 291 291 292 293 294 294 294 294 294 295 294 294 294 293 292 292 292 292 292 293 293 292 292 293 293 293 294 293 292 291 288 284 280 278
283 284 284 285 286 287 288 288 289 289 290 291 292 292 293 294 294 294 294 294 295 294 293 292 291 291 291 291 291 292 291 291 291 291 290 292 293 293 292 290 287 284 279 276
283 284 285 285 286 287 287 287 288 289 290 291 291 292 292 292 293 294 294 294 294 293 293 292 291 290 291 291 291 290 289 289 289 289 289 291 292 292 290 288 285 283 280 277
283 283 284 285 286 287 287 288 289 290 291 291 291 291 291 292 292 292 293 293 293 293 293 292 290 290 291 290 289 288 286 286 288 289 289 290 291 290 288 285 283 283 281 276